Hourly Data Report for December 15, 2019

MUSKOKA
ONTARIO
Current Station Operator: NAVCAN

44°58'29.000" N
79°18'12.000" W
281.90 m
6115529
71532
YQA

Download Data

Hourly Data (December 2019)
Hourly Data Report for December 15, 2019
TIME
LST
Temp Definition
°C
Dew Point Definition
°C
Rel Hum Definition
%
Precip. Amount Definition
mm

Wind Dir Definition
10's deg

Wind Spd Definition
km/h
Visibility Definition
km
Stn Press Definition
kPa
Hmdx Definition


Wind Chill Definition


Weather Definition


00:00 -0.3 -0.9 96 0.0 28 13 4.8 96.15   -4 Fog
01:00 0.1 -0.6 95 0.0 29 18 4.8 96.17     Rain, Snow
02:00 0.2 -0.7 94 0.0 28 15 16.1 96.24     Rain
03:00 -1.0 -2.1 92 0.0 29 24 14.5 96.37   -7 Snow
04:00 -2.3 -3.7 90 0.0 30 26 16.1 96.49   -9 Snow
05:00 -3.9 -5.6 88 0.0 29 22 11.3 96.62   -10 Snow
06:00 -5.6 -7.6 86 0.0 28 22 14.5 96.77   -13 Snow
07:00 -7.5 -9.2 88 0.0 31 21 16.1 96.96   -15 LegendNANA
08:00 -8.6 -10.5 86 0.0 31 17 16.1 97.15   -15 Snow
09:00 -8.9 -11.3 83 0.0 31 21 6.4 97.29   -17 Snow
10:00 -9.9 -12.4 82 0.0 32 26 8.1 97.46   -19 Snow
11:00 -9.6 -12.3 81 0.0 31 22 11.3 97.59   -18 Snow
12:00 -9.1 -11.6 82 0.0 31 17 8.1 97.69   -16 Snow
13:00 -8.4 -11.8 77 0.0 29 18 9.7 97.79   -15 Snow
14:00 -7.6 -11.9 72 0.0 29 24 16.1 97.84   -16 LegendNANA
15:00 -7.8 -12.2 71 0.0 30 22 16.1 97.98   -15 LegendNANA
16:00 -8.0 -11.2 78 0.0 30 21 16.1 98.13   -16 Snow
17:00 -8.2 -10.9 81 0.0 30 21 16.1 98.22   -16 Snow
18:00 -8.0 -10.1 85 0.0 31 9 16.1 98.30   -13 Snow
19:00 -8.4 -10.3 86 0.0 34 8 9.7 98.34   -13 Snow
20:00 -9.2 -11.0 87 0.0 32 8 8.1 98.40   -14 Snow
21:00 -9.3 -10.9 88 0.0 33 5 9.7 98.51   -12 Snow
22:00 -9.5 -11.3 87 0.0 30 8 16.1 98.56   -14 Snow
23:00 -9.8 -12.7 80 0.0 LegendMM 5 16.1 98.56   -13 LegendNANA

Notes on Data Quality.

Legend

  • E = Estimated
  • M = Missing
  • NA = Not Available*
  • [empty] = Indicates an unobserved value
Date modified: